Torna al catalogo

STARLINK-34719

AttivoComunicazioniSSO
NORAD 64943·PAYLOAD·🇺🇸 United States

Lanciato Jul 26, 2025 da Vandenberg Space Force Base

Loading…

Prossimi Passaggi (prossime 24 ore)

TLE

AggiornatoSource: CelesTrak SupGP

Epoca: Sep 14, 2026, 22:49 UTC

1 64943C 25158M   26257.95118056  .00054310  00000+0  16852-2 0  2577
2 64943  97.2849 116.2822 0001441  92.7889 216.8010 15.33425605    15

Traccia STARLINK-34719 in tempo reale con AllMySat

Download on the App Store